Clemson, SC

3:11 PM EST on February 21, 2018 (GMT -0500)
Oconee County Regional

Weather History for KCEU - December, 2013

Change the Weather History Date:

Monday, December 2, 2013

  Actual Average Record
Temperature  
Mean Temperature 48 °F -  
Max Temperature 59 °F 57 °F 74 °F (1970)
Min Temperature 37 °F 34 °F 14 °F (1964)
Degree Days  
Heating Degree Days 17    
Moisture  
Dew Point 40 °F    
Average Humidity 77    
Maximum Humidity 89    
Minimum Humidity 49    
Precipitation  
Precipitation 0.00 in - - ()
Sea Level Pressure  
Sea Level Pressure 29.92 in    
Wind  
Wind Speed 3 mph (West)    
Max Wind Speed 8 mph    
Max Gust Speed -    
Visibility 7 miles    
Events Fog , Rain    
Averages and records for this station are not official NWS values.
T = Trace of Precipitation, MM = Missing Value Source: NWS Daily Summary

Daily Weather History Graph

Daily Weather History Graph

Search for Another Location

Airport or City:

Trip Planner

Search our weather history database for the weather conditions in past years. The results will help you decide how hot, cold, wet, or windy it might be!

Date:

Astronomy

Dec. 02, 2013 Rise Set
Actual Time 7:21 AM EST 5:20 PM EST
Civil Twilight 6:53 AM EST 5:48 PM EST
Nautical Twilight 6:22 AM EST 6:19 PM EST
Astronomical Twilight 5:52 AM EST 6:49 PM EST
Moon 6:46 AM EST (12/2) 5:21 PM EST (12/2)
Length of Visible Light 10h 54m
Length of Day
9h 59m
Waning Crescent, 0% of the Moon is Illuminated
Dec 2
Waning Crescent
Dec 2
New
Dec 9
First Quarter
Dec 17
Full
Dec 25
Last Quarter

Hourly Weather History & Observations

Time (EST) Temp. Windchill Dew Point Humidity Pressure Visibility Wind Dir Wind Speed Gust Speed Precip Events Conditions
12:54 AM 43.0 °F - 37.0 °F 80% 30.00 in 9.0 mi Calm Calm - N/A   Clear
1:54 AM 39.9 °F - 36.0 °F 86% 29.99 in 5.0 mi Calm Calm - N/A   Clear
2:54 AM 39.0 °F - 35.1 °F 86% 29.97 in 6.0 mi Calm Calm - N/A   Clear
3:11 AM 39.2 °F 33.6 °F 33.8 °F 81% 29.97 in 2.5 mi WSW 8.1 mph - N/A   Haze
3:17 AM 37.4 °F 31.4 °F 33.8 °F 87% 29.97 in 1.0 mi WSW 8.1 mph - N/A   Mist
3:20 AM 39.2 °F 33.6 °F 33.8 °F 81% 29.97 in 0.5 mi WSW 8.1 mph - N/A   Haze
3:29 AM 39.2 °F 34.2 °F 35.6 °F 87% 29.97 in 0.2 mi WSW 6.9 mph - N/A Fog Fog
3:44 AM 39.2 °F 35.0 °F 35.6 °F 87% 29.98 in 1.0 mi West 5.8 mph - N/A   Mist
3:48 AM 39.2 °F 35.0 °F 35.6 °F 87% 29.97 in 3.0 mi West 5.8 mph - N/A   Mostly Cloudy
3:54 AM 39.0 °F 35.7 °F 36.0 °F 89% 29.97 in 8.0 mi West 4.6 mph - N/A   Scattered Clouds
4:54 AM 41.0 °F 39.0 °F 36.0 °F 82% 29.96 in 10.0 mi NNW 3.5 mph - N/A   Overcast
5:54 AM 41.0 °F 39.0 °F 36.0 °F 82% 29.94 in 9.0 mi ENE 3.5 mph - N/A   Overcast
6:54 AM 42.1 °F 40.2 °F 36.0 °F 79% 29.95 in 10.0 mi WNW 3.5 mph - N/A   Scattered Clouds
7:54 AM 43.0 °F 41.3 °F 39.0 °F 86% 29.95 in 10.0 mi NW 3.5 mph - N/A   Overcast
8:54 AM 44.1 °F - 39.9 °F 85% 29.95 in 10.0 mi Calm Calm - N/A   Overcast
9:54 AM 46.9 °F - 42.1 °F 83% 29.94 in 10.0 mi Calm Calm - N/A   Overcast
10:54 AM 51.1 °F - 41.0 °F 68% 29.93 in 10.0 mi Calm Calm - N/A   Overcast
11:54 AM 55.9 °F - 41.0 °F 57% 29.90 in 10.0 mi Calm Calm - N/A   Overcast
12:54 PM 57.9 °F - 39.0 °F 49% 29.86 in 10.0 mi WSW 5.8 mph - N/A   Mostly Cloudy
1:54 PM 57.9 °F - 41.0 °F 53% 29.85 in 10.0 mi SSW 4.6 mph - N/A   Mostly Cloudy
2:54 PM 59.0 °F - 42.1 °F 53% 29.83 in 10.0 mi WSW 5.8 mph - N/A   Overcast
3:54 PM 57.0 °F - 44.1 °F 62% 29.83 in 10.0 mi WSW 5.8 mph - N/A   Overcast
4:54 PM 55.9 °F - 45.0 °F 67% 29.83 in 10.0 mi Variable 4.6 mph - N/A   Overcast
5:54 PM 54.0 °F - 46.0 °F 75% 29.84 in 10.0 mi Calm Calm - N/A   Mostly Cloudy
6:54 PM 54.0 °F - 46.0 °F 75% 29.85 in 10.0 mi Calm Calm - N/A   Mostly Cloudy
7:54 PM 53.1 °F - 46.0 °F 77% 29.85 in 10.0 mi Calm Calm - N/A   Partly Cloudy
8:54 PM 52.0 °F - 46.0 °F 80% 29.87 in 8.0 mi SSW 3.5 mph - N/A   Mostly Cloudy
9:54 PM 52.0 °F - 46.0 °F 80% 29.87 in 8.0 mi Calm Calm - N/A   Overcast
10:54 PM 52.0 °F - 46.0 °F 80% 29.87 in 7.0 mi Calm Calm - N/A   Overcast
11:54 PM 52.0 °F - 46.9 °F 83% 29.88 in 4.0 mi Calm Calm - 0.00 in Rain Light Rain